Tracking 35275 objects as of 8-Sep-2026
HD Live streaming from Space Station
objects crossing your sky now

SPACEBEE-112


SPACEBEE-112 is no longer on orbit


NORAD ID: 52025
Int'l Code: 2022-026T
Launch date: March 15, 2022
Source: United States (US)
Launch site: Kodiak Island, Alaska (KODAK)
Decay date: 2024-01-12
Your satellite tracking list
Your tracking list is empty




NASA's NSSDC Master Catalog

Two Line Element Set (TLE):
1 52025U 22026T   24010.26115594  .17126367  26081-5  35371-3 0  9993
2 52025  97.4541  29.4913 0010844 273.7066  86.2996 16.46248144101723
Source of the keplerian elements: AFSPC